Tracking 22441 objects as of 28-Feb-2021
HD Live streaming from Space Station
objects crossing your sky now

FREGAT DEB

Track FREGAT DEB now!
10-day predictions


NORAD ID: 45999
Int'l Code: 2011-037HA
Perigee: 750.6 km
Apogee: 4,647.9 km
Inclination: 51.5 °
Period: 143.3 minutes
Semi major axis: 9070 km
RCS: Unknown
Launch date: July 18, 2011
Source: Commonwealth of Independent States (former USSR) (CIS)
Launch site: TYURATAM MISSILE AND SPACE COMPLEX (TTMTR)

Note: This is SATELLITE DEBRIS
aabbcc
Your satellite tracking list
Your tracking list is empty




NASA's NSSDC Master Catalog

Two Line Element Set (TLE):
1 45999U 11037HA  21058.74863820  .00000059  00000-0  31053-3 0  9991
2 45999  51.4571 226.4550 2148423  53.5119 324.5036 10.05017386 21460
Source of the keplerian elements: AFSPC